Theta_e
319 322 325 323 325 329 329 332 334 332 323 321 322 325 323 322 314 314 314 313 314 318 323 327 329 330 331 332 333 332 332 331 329 329 329 329 330 329 328 327 329 329 328 327
317 321 321 321 326 330 330 333 334 331 315 316 318 320 320 319 320 320 316 315 313 315 317 323 328 329 331 331 332 332 333 333 332 330 330 330 330 329 327 327 328 329 329 328
317 320 321 324 326 329 325 330 331 331 316 313 314 317 318 318 318 318 319 318 317 314 314 317 326 328 330 331 331 331 333 334 333 332 332 331 331 329 329 330 330 330 330 330
317 317 322 324 324 325 329 325 324 324 321 326 315 323 324 323 320 318 318 318 318 316 313 314 322 327 329 330 330 332 333 334 334 333 333 332 331 330 330 330 330 331 330 330
318 323 324 326 325 324 329 321 322 324 322 320 320 314 318 319 320 318 315 313 316 317 312 312 317 325 329 330 330 331 332 333 334 334 333 333 332 331 331 331 332 331 331 330
322 313 322 323 325 323 321 322 322 319 317 320 319 321 321 320 318 317 315 312 313 313 313 310 315 324 327 329 330 330 331 332 333 333 334 333 332 332 332 332 332 332 332 331
319 317 318 317 322 323 316 317 317 321 321 323 315 320 322 319 317 316 315 313 312 312 312 310 308 311 319 326 329 330 331 331 331 332 333 334 333 333 333 332 332 332 332 331
320 319 316 312 319 323 317 319 320 323 323 319 309 314 315 314 315 314 314 313 311 310 310 311 310 311 312 317 324 329 331 331 331 331 333 333 334 333 333 333 333 332 332 331
318 317 315 313 317 317 317 319 317 312 305 314 313 312 312 312 311 311 311 311 310 308 308 307 309 311 312 313 315 317 323 329 330 331 332 332 332 333 333 333 332 332 332 331
317 316 314 311 311 314 316 317 322 316 314 315 315 315 315 315 312 310 309 308 308 308 308 307 306 309 310 310 311 311 311 311 315 324 328 331 331 331 332 332 332 332 332 331
316 313 309 309 311 317 311 318 318 316 316 321 321 315 311 312 312 311 309 310 310 309 307 307 305 309 310 309 309 308 307 308 308 309 318 324 329 330 329 330 330 331 329 328
317 312 311 311 308 310 314 316 318 320 317 311 314 313 307 311 307 307 309 309 308 307 307 305 305 309 310 311 311 311 310 308 307 309 312 318 322 324 326 327 329 327 325 325
314 313 313 311 310 308 312 314 317 314 313 313 314 315 307 307 306 307 307 308 306 307 307 306 307 307 310 312 312 313 312 311 311 311 316 320 321 322 323 323 322 322 323 323
313 314 314 313 313 311 311 313 314 317 316 314 315 314 308 307 307 307 308 307 307 305 305 305 306 306 309 311 313 313 313 312 312 312 313 316 317 318 319 319 319 320 321 321
313 315 314 312 312 312 311 312 314 315 316 315 315 313 312 307 307 307 306 307 306 306 305 305 305 305 308 310 311 313 313 313 313 312 311 312 313 314 314 316 318 319 319 319
314 314 311 309 311 311 311 310 312 313 314 314 314 312 311 310 308 305 307 307 306 307 306 304 304 305 307 309 310 311 312 313 313 312 312 312 312 312 311 311 311 310 311 312
313 313 312 311 310 310 311 310 311 312 312 313 314 314 310 309 308 307 307 307 306 306 306 305 303 302 305 308 309 309 311 313 313 312 313 313 312 312 312 312 311 310 308 310
312 311 313 313 311 313 310 309 309 311 310 311 312 311 310 309 308 307 306 307 306 305 304 304 303 305 306 306 308 308 309 310 312 312 312 312 312 311 311 311 309 309 309 308
311 312 316 316 315 312 313 311 308 309 309 309 309 310 308 307 307 306 306 306 306 305 305 304 305 306 307 306 306 307 308 309 310 310 310 311 310 309 308 307 309 309 310 310
311 312 315 317 318 319 313 310 308 308 311 309 308 308 308 306 308 308 305 305 305 303 302 302 304 305 305 305 306 305 306 307 307 306 307 308 308 307 306 307 308 308 309 310
312 312 314 316 317 314 310 307 309 311 311 309 309 309 309 309 310 306 303 302 300 300 299 300 299 299 297 298 301 303 302 303 304 304 304 305 306 305 305 306 306 306 307 307
312 314 314 315 314 313 305 308 312 309 306 305 306 307 307 306 305 303 300 299 297 295 294 296 296 294 294 295 296 297 298 298 300 301 302 303 303 304 302 303 305 305 305 304
311 311 312 313 313 305 303 306 305 305 305 304 304 305 306 305 303 300 299 296 293 292 292 293 294 291 291 292 292 293 292 294 296 297 299 299 299 299 300 302 303 302 301 300
307 308 307 306 307 304 304 304 303 304 304 303 304 303 303 301 298 296 294 292 290 289 289 291 290 287 286 288 289 289 291 294 295 294 294 294 295 296 298 300 301 301 299 297
306 307 304 306 305 305 306 305 303 301 300 299 297 299 299 296 295 293 291 290 288 287 287 287 286 284 283 285 286 288 290 291 292 293 293 294 295 295 295 295 296 296 297 298
295 297 307 308 297 304 302 297 299 299 300 298 296 295 294 294 292 289 288 287 286 284 284 283 283 282 281 282 284 287 289 291 291 291 291 292 293 293 293 294 293 294 295 295
Wind_Speed
3 3 12 21 15 6 11 12 12 7 4 6 8 13 12 10 8 9 9 8 8 10 14 26 25 27 29 30 32 31 32 31 29 31 30 28 28 25 23 27 21 21 21 19
5 7 6 14 19 16 12 14 12 7 9 2 6 13 10 10 10 10 11 10 10 8 10 19 29 29 31 33 36 34 33 34 34 32 32 28 28 25 26 23 26 25 24 22
6 5 8 16 20 16 6 10 8 5 6 4 5 10 11 10 12 11 11 10 11 12 10 9 23 31 31 34 34 36 35 35 34 30 28 24 24 23 22 23 26 27 26 26
11 12 15 9 15 14 13 7 4 4 5 4 8 5 5 7 16 13 17 14 13 11 11 11 18 24 27 31 30 31 32 32 33 32 29 30 27 22 25 30 29 27 27 28
12 13 13 17 12 12 5 9 6 3 3 5 6 2 5 9 7 12 15 14 16 14 10 10 13 26 35 34 36 37 35 35 34 35 35 31 27 27 21 25 25 27 29 31
12 3 10 22 15 16 1 10 3 2 2 6 9 9 6 7 8 6 7 11 15 13 11 9 18 28 28 29 34 34 34 36 37 36 37 35 31 27 28 28 29 28 31 30
9 12 12 5 6 7 7 13 3 3 4 6 3 9 14 6 8 7 9 8 5 13 13 11 11 16 26 30 36 36 36 35 37 39 39 38 37 33 32 30 31 30 31 31
11 9 17 13 16 12 14 12 5 7 5 3 1 7 5 11 12 9 5 4 4 2 2 9 10 20 27 31 35 36 35 37 35 37 40 39 37 35 35 33 32 32 33 34
15 8 20 14 7 13 14 14 3 6 3 3 5 6 7 14 8 4 3 2 5 7 7 7 7 18 24 28 32 34 34 35 34 37 37 38 39 38 34 32 32 32 33 34
8 5 19 6 5 7 14 9 6 2 5 4 5 5 6 5 9 7 7 8 9 9 9 8 6 11 15 19 23 24 27 34 35 31 32 35 36 34 34 31 31 31 31 29
12 4 4 7 10 22 6 12 7 5 4 4 1 5 5 9 8 8 5 3 3 3 3 6 7 11 10 11 13 17 20 22 23 29 31 30 32 33 32 33 32 30 27 26
5 5 10 25 5 3 14 7 12 5 6 3 3 6 3 1 8 8 4 2 1 1 0 3 7 12 11 10 10 12 14 17 20 21 25 27 28 29 30 30 30 27 26 26
8 6 6 6 8 3 14 15 24 4 2 7 5 5 1 6 6 4 2 2 1 2 3 3 5 5 10 12 12 12 12 12 14 17 20 21 23 25 28 29 26 25 26 27
11 5 6 11 17 7 12 21 12 18 3 3 14 2 4 5 6 5 2 5 6 5 6 5 4 4 9 11 12 12 12 12 13 14 17 20 22 23 24 24 24 23 24 26
8 3 1 1 6 13 15 20 21 19 23 8 11 14 9 8 8 6 6 5 6 5 5 6 6 7 11 12 12 13 13 14 15 15 17 19 18 18 18 19 23 24 24 23
5 8 4 1 5 10 12 20 20 21 26 22 22 10 9 12 4 6 6 5 6 6 6 6 6 7 10 15 16 15 16 17 17 18 20 17 16 16 16 16 18 21 24 22
18 10 12 8 5 8 1 27 26 26 21 28 24 30 10 9 9 8 7 6 7 7 8 8 8 9 15 19 19 20 18 17 19 19 17 16 17 17 18 18 18 17 18 18
18 12 5 4 6 6 6 19 22 26 24 27 29 7 12 12 8 8 9 9 8 7 9 10 9 10 12 14 19 20 21 22 23 23 23 21 21 20 19 20 19 18 18 18
12 10 4 6 9 4 6 8 22 16 22 26 28 19 11 5 1 7 7 8 11 11 7 5 8 12 12 14 16 19 21 23 24 28 29 27 26 22 20 20 17 17 18 19
3 10 5 5 5 11 8 12 11 6 24 14 18 16 14 9 13 12 12 11 3 8 8 7 4 2 3 4 11 17 19 19 25 21 23 22 22 21 22 21 21 21 21 20
9 8 13 5 4 8 7 10 15 13 9 15 21 15 17 13 16 4 7 5 5 9 11 9 8 8 7 5 4 10 12 16 17 17 15 16 19 19 18 18 20 21 19 17
10 11 6 5 4 10 7 14 21 7 4 6 3 5 6 8 4 6 8 7 8 7 11 12 11 12 11 10 7 5 4 4 6 8 9 11 14 16 16 17 17 18 17 17
5 9 9 14 10 4 4 6 2 1 5 5 6 2 3 6 5 6 6 7 7 9 11 10 12 12 15 14 12 9 9 8 6 6 6 7 9 11 14 18 19 18 18 17
4 7 4 6 7 7 8 2 4 3 4 6 4 4 3 6 8 8 7 6 6 7 10 15 17 16 16 15 15 12 10 7 6 7 6 3 2 6 10 14 17 19 18 17
3 8 6 0 2 4 3 2 5 6 6 7 5 4 7 9 8 9 8 6 6 9 13 18 18 16 15 15 19 16 13 10 9 9 8 6 2 2 5 8 10 12 13 15
4 2 5 7 4 2 3 6 6 7 5 4 6 5 6 6 10 10 8 9 10 11 14 17 20 20 17 19 21 19 15 12 12 13 11 8 8 7 6 7 5 3 6 7
Wind_Direction
296 151 216 204 203 192 172 195 207 208 178 165 231 251 244 238 201 223 234 237 236 198 188 198 204 202 198 200 201 205 204 206 207 203 204 205 206 212 222 216 215 219 220 227
271 256 259 222 205 218 174 204 213 216 126 133 270 260 245 231 234 217 207 220 229 215 187 186 191 200 199 199 201 202 205 203 201 201 203 204 205 212 225 223 214 215 219 225
188 246 226 233 206 205 181 211 192 193 140 218 291 275 243 241 238 226 233 223 215 213 203 192 185 192 194 198 201 203 205 205 203 202 201 206 208 215 216 219 220 217 218 219
211 241 255 216 230 210 190 197 196 155 129 243 156 283 259 228 231 216 224 227 223 222 201 197 186 188 194 207 207 208 208 207 207 204 202 200 203 206 211 218 219 217 217 218
199 191 217 251 220 233 204 148 172 154 187 331 232 268 256 224 217 209 215 220 226 223 214 197 187 184 194 202 205 209 209 210 208 208 206 205 208 212 216 213 217 217 219 217
169 142 198 227 207 199 19 117 115 82 160 251 210 215 223 229 233 229 219 215 214 215 225 204 198 195 199 201 206 209 208 212 212 212 211 210 211 210 214 214 213 216 218 218
173 208 177 182 203 203 184 139 133 189 201 233 139 221 246 255 236 233 225 212 216 206 205 201 187 200 198 199 205 208 209 211 214 213 212 212 215 216 215 215 215 212 212 214
156 185 178 177 200 181 197 182 158 178 194 219 341 240 248 243 246 257 256 252 104 342 235 206 195 188 196 202 206 207 207 212 212 214 214 214 216 216 220 217 217 217 214 216
178 181 178 178 182 157 191 214 153 101 30 73 207 262 294 263 245 249 245 182 231 244 252 228 192 184 190 195 204 211 211 215 215 216 216 214 216 217 218 220 221 220 220 221
167 123 185 166 127 194 198 154 214 260 152 231 256 228 235 248 226 205 197 220 235 230 221 218 199 188 194 203 210 213 220 225 225 219 218 217 216 217 221 221 222 222 222 218
170 116 138 140 198 189 175 193 212 141 190 178 214 252 219 237 207 190 154 178 223 176 248 230 169 168 188 202 212 223 225 224 223 223 218 217 214 214 217 217 219 219 225 225
212 90 153 189 173 200 217 214 193 178 221 174 139 265 231 82 114 120 86 316 18 19 235 105 136 146 169 196 204 211 217 220 222 219 216 216 214 214 214 215 214 217 224 225
177 138 115 124 272 244 208 214 203 158 89 213 139 250 242 115 123 139 138 32 138 177 130 100 118 157 184 195 199 202 206 211 215 212 210 211 215 217 219 220 221 217 221 223
142 146 167 185 212 113 195 211 214 206 168 180 217 96 175 178 182 234 256 175 153 173 168 169 169 202 210 203 198 198 202 204 204 204 208 214 217 219 221 221 220 223 224 225
141 116 267 189 172 183 189 199 204 208 227 200 217 215 240 179 163 153 137 130 139 161 183 188 192 205 211 207 205 205 205 201 205 201 205 211 212 214 216 216 220 223 224 227
119 190 181 276 192 174 181 195 201 208 222 233 238 249 215 246 92 195 226 191 198 193 185 205 222 216 212 210 211 212 208 206 207 207 210 210 210 207 208 211 214 217 222 222
177 156 184 212 142 99 296 201 198 210 216 217 227 230 177 226 229 226 240 220 228 190 201 215 220 224 226 221 209 207 211 213 211 213 215 212 211 210 211 214 215 219 219 215
175 165 169 159 143 177 248 183 206 212 218 223 236 202 200 221 232 210 211 222 222 197 214 221 219 231 233 225 218 215 208 212 217 217 216 214 213 215 215 217 217 213 212 213
186 174 125 156 199 299 273 228 193 190 235 228 235 232 221 189 102 253 218 213 223 215 226 254 231 233 215 207 215 213 214 217 217 222 221 218 215 214 215 214 212 215 220 216
188 184 178 163 176 203 257 165 172 147 266 212 221 223 219 208 238 248 210 221 264 66 50 42 41 95 153 205 217 212 218 220 231 243 247 238 229 223 215 215 211 217 220 222
165 169 191 183 192 268 227 183 138 171 258 203 208 204 206 205 221 171 117 78 77 73 58 48 53 59 31 345 264 230 231 237 250 260 262 250 244 240 233 225 216 218 218 216
166 167 181 191 189 257 165 149 171 175 244 85 103 148 197 224 137 131 105 97 84 73 55 52 69 61 37 20 0 356 8 313 273 253 248 239 235 233 232 226 221 227 222 212
186 196 167 186 203 215 203 180 118 55 153 174 133 93 150 117 111 102 88 76 64 63 59 60 83 71 45 39 36 51 5 340 311 274 242 225 218 220 224 216 215 210 211 209
242 192 163 107 202 179 185 173 103 112 123 123 87 99 83 120 122 108 96 86 81 75 77 90 82 62 44 45 46 38 20 24 43 50 38 11 228 212 214 218 215 209 203 201
202 153 162 276 96 66 344 219 153 126 119 110 75 103 131 122 110 116 109 94 82 79 78 82 79 70 59 57 58 49 43 41 66 80 86 94 123 195 191 201 203 208 214 222
5 17 184 225 15 356 60 347 346 138 150 150 133 95 61 99 103 99 83 82 81 75 81 84 86 83 73 66 58 56 61 70 79 81 83 93 108 124 155 170 151 188 226 233